Regional Weather Roundup
Issued by NWS

Home | Current Version | Previous Version | Text Only | Print | Product List | Glossary Off
Versions: 1 2 3 4 5 6 7 8 9 10 11 12 13 14 15 16 17 18 19 20 21 22 23 24 25 26 27 28 29 30 31 32 33 34 35 36 37 38 39 40 41 42 43 44 45 46 47 48 49 50

235
ASUS43 KLMK 271202
RWRKY
KENTUCKY REGIONAL WEATHER ROUNDUP
NATIONAL WEATHER SERVICE LOUISVILLE KY
800 AM EDT TUE JUN 27 2017

NOTE "FAIR" INDICATES FEW OR NO CLOUDS BELOW 12,000 FEET
WITH NO SIGNIFICANT WEATHER AND/OR OBSTRUCTIONS TO VISIBILITY.

KYZ001>023-026-027-061>063-070>075-271300-
WESTERN AND SOUTH CENTRAL KENTUCKY

CITY           SKY/WX    TMP DP  RH WIND       PRES   REMARKS
PADUCAH        SUNNY     63  57  81 N3        30.14R
HENDERSON      SUNNY     59  57  93 CALM      30.16R
OWENSBORO      MOSUNNY   61  56  83 CALM      30.16R
HOPKINSVILLE   CLOUDY    62  58  88 N6        30.13R
BOWLING GREEN  SUNNY     63  56  78 NE5       30.15R
GLASGOW        NOT AVBL
$$

KYZ024-025-028>034-038-045-046-053-271300-
NORTH CENTRAL KENTUCKY

CITY           SKY/WX    TMP DP  RH WIND       PRES   REMARKS
LOUISVILLE/SDF SUNNY     63  58  83 W3        30.15R
LOUISVILLE/LOU SUNNY     62  60  93 CALM      30.15S
FORT KNOX      SUNNY     59  53  81 CALM      30.14R
$$

KYZ035>037-039>044-047>052-055>060-089>105-271300-
NORTHEAST KENTUCKY

CITY           SKY/WX    TMP DP  RH WIND       PRES   REMARKS
LEXINGTON      SUNNY     59  54  83 CALM      30.15R
COVINGTON      SUNNY     57  52  83 W6        30.14R
FRANKFORT      SUNNY     60  55  83 CALM      30.14R
$$

KYZ054-064>069-076>088-106>120-271300-
SOUTHEAST KENTUCKY

CITY           SKY/WX    TMP DP  RH WIND       PRES   REMARKS
JACKSON        MOSUNNY   60  52  74 NW5       30.16R
LONDON         SUNNY     60  53  77 NE3       30.16R
SOMERSET       SUNNY     59  54  82 CALM      30.17R
MIDDLESBORO    MOSUNNY   57  55  92 CALM      30.17R
MONTICELLO     SUNNY     60  57  89 N12       30.17S
$$





USA.gov is the U.S. government's official web portal to all federal, state and local government web resources and services.